TimeMDT,TemperatureF,Dew PointF,Humidity,Sea Level PressureIn,VisibilityMPH,Wind Direction,Wind SpeedMPH,Gust SpeedMPH,PrecipitationIn,Events,Conditions,WindDirDegrees,DateUTC
12:15 AM,50.0,41.0,71,30.72,-9999.0,West,20.7,-,N/A,,Scattered Clouds,280,2013-07-12 06:15:00
12:35 AM,50.0,41.0,71,30.72,-9999.0,West,21.9,-,N/A,,Scattered Clouds,270,2013-07-12 06:35:00
12:55 AM,48.2,42.8,82,30.71,-9999.0,West,24.2,-,N/A,,Mostly Cloudy,270,2013-07-12 06:55:00
1:15 AM,48.2,41.0,76,30.71,-9999.0,West,25.3,28.8,N/A,,Mostly Cloudy,270,2013-07-12 07:15:00
1:35 AM,48.2,41.0,76,30.70,-9999.0,West,25.3,-,N/A,,Scattered Clouds,270,2013-07-12 07:35:00
1:55 AM,46.4,41.0,81,30.70,-9999.0,West,26.5,29.9,N/A,,Scattered Clouds,270,2013-07-12 07:55:00
2:15 AM,46.4,41.0,81,30.69,-9999.0,West,23.0,-,N/A,,Clear,260,2013-07-12 08:15:00
2:35 AM,46.4,41.0,81,30.69,-9999.0,West,18.4,-,N/A,,Scattered Clouds,260,2013-07-12 08:35:00
2:55 AM,48.2,39.2,71,30.68,-9999.0,West,19.6,-,N/A,,Scattered Clouds,270,2013-07-12 08:55:00
3:15 AM,46.4,41.0,81,30.68,-9999.0,West,20.7,-,N/A,,Scattered Clouds,270,2013-07-12 09:15:00
3:35 AM,46.4,39.2,76,30.67,-9999.0,West,20.7,-,N/A,,Clear,270,2013-07-12 09:35:00
3:55 AM,48.2,39.2,71,30.67,-9999.0,WSW,19.6,-,N/A,,Clear,250,2013-07-12 09:55:00
4:15 AM,48.2,37.4,66,30.66,-9999.0,West,20.7,-,N/A,,Clear,270,2013-07-12 10:15:00
4:35 AM,50.0,37.4,62,30.66,-9999.0,West,20.7,-,N/A,,Clear,260,2013-07-12 10:35:00
4:55 AM,50.0,37.4,62,30.67,-9999.0,West,21.9,-,N/A,,Clear,260,2013-07-12 10:55:00
5:15 AM,48.2,37.4,66,30.67,-9999.0,West,20.7,-,N/A,,Clear,270,2013-07-12 11:15:00
5:35 AM,48.2,37.4,66,30.68,-9999.0,West,21.9,-,N/A,,Clear,270,2013-07-12 11:35:00
5:55 AM,48.2,37.4,66,30.68,-9999.0,West,23.0,-,N/A,,Clear,270,2013-07-12 11:55:00
6:15 AM,46.4,37.4,71,30.69,-9999.0,West,20.7,-,N/A,,Clear,260,2013-07-12 12:15:00
6:35 AM,46.4,37.4,71,30.68,-9999.0,West,26.5,-,N/A,,Clear,270,2013-07-12 12:35:00
6:55 AM,46.4,37.4,71,30.68,-9999.0,West,24.2,-,N/A,,Clear,270,2013-07-12 12:55:00
7:15 AM,48.2,37.4,66,30.68,-9999.0,West,21.9,-,N/A,,Clear,270,2013-07-12 13:15:00
7:35 AM,48.2,37.4,66,30.69,-9999.0,West,19.6,-,N/A,,Clear,270,2013-07-12 13:35:00
7:55 AM,50.0,39.2,66,30.70,-9999.0,West,15.0,-,N/A,,Clear,280,2013-07-12 13:55:00
8:15 AM,50.0,39.2,66,30.70,-9999.0,West,15.0,-,N/A,,Clear,270,2013-07-12 14:15:00
8:35 AM,51.8,41.0,67,30.71,-9999.0,West,12.7,-,N/A,,Scattered Clouds,260,2013-07-12 14:35:00
8:55 AM,51.8,41.0,67,30.71,-9999.0,WSW,16.1,20.7,N/A,,Scattered Clouds,250,2013-07-12 14:55:00
9:15 AM,53.6,41.0,62,30.71,-9999.0,West,16.1,24.2,N/A,,Clear,260,2013-07-12 15:15:00
9:35 AM,53.6,41.0,62,30.71,-9999.0,WSW,18.4,25.3,N/A,,Clear,250,2013-07-12 15:35:00
9:55 AM,53.6,41.0,62,30.72,-9999.0,West,17.3,-,N/A,,Clear,280,2013-07-12 15:55:00
10:15 AM,55.4,42.8,63,30.72,-9999.0,WSW,16.1,21.9,N/A,,Scattered Clouds,240,2013-07-12 16:15:00
10:35 AM,57.2,42.8,59,30.72,-9999.0,West,16.1,24.2,N/A,,Overcast,270,2013-07-12 16:35:00
10:55 AM,57.2,41.0,55,30.72,-9999.0,West,24.2,27.6,N/A,,Overcast,270,2013-07-12 16:55:00
11:15 AM,59.0,41.0,51,30.73,-9999.0,West,18.4,25.3,N/A,,Overcast,260,2013-07-12 17:15:00
11:35 AM,57.2,41.0,55,30.73,-9999.0,WSW,13.8,21.9,N/A,Thunderstorm,Thunderstorm,250,2013-07-12 17:35:00
11:55 AM,59.0,41.0,51,30.72,-9999.0,WSW,17.3,24.2,N/A,,Overcast,240,2013-07-12 17:55:00
12:15 PM,59.0,41.0,51,30.72,-9999.0,WSW,13.8,20.7,N/A,,Overcast,240,2013-07-12 18:15:00
12:35 PM,60.8,41.0,48,30.72,-9999.0,West,18.4,27.6,N/A,,Mostly Cloudy,260,2013-07-12 18:35:00
12:55 PM,62.6,39.2,42,30.71,-9999.0,West,20.7,25.3,N/A,,Mostly Cloudy,280,2013-07-12 18:55:00
1:15 PM,59.0,37.4,45,30.71,-9999.0,WSW,19.6,26.5,N/A,,Mostly Cloudy,250,2013-07-12 19:15:00
1:35 PM,55.4,42.8,63,30.73,-9999.0,SW,17.3,33.4,N/A,Thunderstorm,Thunderstorm,230,2013-07-12 19:35:00
1:55 PM,50.0,44.6,82,30.74,-9999.0,SW,12.7,16.1,N/A,,Overcast,230,2013-07-12 19:55:00
2:15 PM,51.8,50.0,94,30.72,-9999.0,WSW,18.4,-,N/A,Thunderstorm,Thunderstorm,250,2013-07-12 20:15:00
2:35 PM,55.4,50.0,82,30.71,-9999.0,WSW,17.3,23.0,N/A,,Overcast,240,2013-07-12 20:35:00
2:55 PM,55.4,44.6,67,30.71,-9999.0,West,16.1,-,N/A,Thunderstorm,Thunderstorm,270,2013-07-12 20:55:00
3:15 PM,53.6,44.6,72,30.72,-9999.0,West,18.4,25.3,N/A,,Overcast,270,2013-07-12 21:15:00
3:35 PM,53.6,44.6,72,30.71,-9999.0,West,19.6,-,N/A,,Overcast,280,2013-07-12 21:35:00
3:55 PM,53.6,44.6,72,30.71,-9999.0,West,17.3,27.6,N/A,Thunderstorm,Thunderstorm,270,2013-07-12 21:55:00
4:15 PM,53.6,44.6,72,30.72,-9999.0,West,17.3,-,N/A,,Overcast,270,2013-07-12 22:15:00
4:35 PM,53.6,44.6,72,30.71,-9999.0,West,20.7,-,N/A,Thunderstorm,Thunderstorm,270,2013-07-12 22:35:00
4:55 PM,53.6,42.8,67,30.71,-9999.0,West,21.9,26.5,N/A,,Overcast,260,2013-07-12 22:55:00
5:15 PM,51.8,42.8,71,30.72,-9999.0,SW,16.1,24.2,N/A,,Overcast,230,2013-07-12 23:15:00
5:35 PM,51.8,42.8,71,30.71,-9999.0,WSW,23.0,31.1,N/A,Thunderstorm,Thunderstorm,240,2013-07-12 23:35:00
5:55 PM,50.0,44.6,82,30.70,-9999.0,West,31.1,35.7,N/A,Thunderstorm,Thunderstorm,260,2013-07-12 23:55:00
6:15 PM,50.0,44.6,82,30.72,-9999.0,West,27.6,35.7,N/A,,Overcast,270,2013-07-13 00:15:00
6:35 PM,48.2,44.6,87,30.72,-9999.0,West,23.0,31.1,N/A,,Unknown,270,2013-07-13 00:35:00
6:55 PM,48.2,44.6,87,30.72,-9999.0,West,23.0,-,N/A,Thunderstorm,Thunderstorm,270,2013-07-13 00:55:00
7:15 PM,48.2,44.6,87,30.72,-9999.0,West,20.7,-,N/A,,Unknown,260,2013-07-13 01:15:00
7:35 PM,48.2,44.6,87,30.71,-9999.0,West,19.6,-,N/A,,Unknown,260,2013-07-13 01:35:00
7:55 PM,50.0,44.6,82,30.72,-9999.0,WSW,6.9,-,N/A,,Overcast,250,2013-07-13 01:55:00
8:15 PM,50.0,41.0,71,30.71,-9999.0,North,5.8,-,N/A,,Overcast,360,2013-07-13 02:15:00
8:35 PM,50.0,41.0,71,30.72,-9999.0,NNE,5.8,-,N/A,,Mostly Cloudy,30,2013-07-13 02:35:00
8:55 PM,51.8,41.0,67,30.72,-9999.0,Calm,Calm,-,N/A,,Mostly Cloudy,0,2013-07-13 02:55:00
9:15 PM,51.8,41.0,67,30.71,-9999.0,East,3.5,-,N/A,,Overcast,90,2013-07-13 03:15:00
9:35 PM,51.8,37.4,58,30.71,-9999.0,Calm,Calm,-,N/A,,Mostly Cloudy,0,2013-07-13 03:35:00
9:55 PM,51.8,39.2,62,30.72,-9999.0,West,3.5,-,N/A,,Scattered Clouds,270,2013-07-13 03:55:00
10:15 PM,50.0,37.4,62,30.73,-9999.0,WSW,8.1,-,N/A,,Clear,240,2013-07-13 04:15:00
10:35 PM,50.0,41.0,71,30.73,-9999.0,SW,10.4,-,N/A,,Clear,230,2013-07-13 04:35:00
10:55 PM,48.2,42.8,82,30.74,-9999.0,WSW,15.0,-,N/A,,Mostly Cloudy,250,2013-07-13 04:55:00
11:15 PM,48.2,42.8,82,30.73,-9999.0,West,17.3,-,N/A,,Overcast,260,2013-07-13 05:15:00
11:35 PM,46.4,42.8,87,30.74,-9999.0,WSW,19.6,-,N/A,,Overcast,250,2013-07-13 05:35:00
11:55 PM,46.4,44.6,93,30.74,-9999.0,WSW,20.7,-,N/A,,Overcast,250,2013-07-13 05:55:00